Weather History for Milwaukee, WI

Change the Weather History Date:

Friday, May 24, 2013

  Actual Average Record
Temperature  
Mean Temperature 45 °F 58 °F  
Max Temperature 51 °F 68 °F 90 °F (1950)
Min Temperature 38 °F 49 °F 34 °F (1958)
Degree Days  
Heating Degree Days 20 8  
Month to date heating degree days 254 266  
Since 1 July heating degree days 6695 6763  
Cooling Degree Days 0 1  
Month to date cooling degree days 19 14  
Year to date cooling degree days 22 19  
Moisture  
Dew Point 34 °F    
Average Humidity 67    
Maximum Humidity 82    
Minimum Humidity 52    
Precipitation  
Precipitation 0.00 in 0.12 in 1.88 in (1955)
Month to date precipitation 2.73 2.59  
Year to date precipitation 17.94 11.83  
Snow  
Snow 0.00 in 0.00 in T in (1925)
Month to date snowfall 0.0 0.1  
Since 1 July snowfall 45.0 46.9  
Snow Depth 0.00 in    
Sea Level Pressure  
Sea Level Pressure 30.40 in    
Wind  
Wind Speed 7 mph (NNE)    
Max Wind Speed 17 mph    
Max Gust Speed 22 mph    
Visibility 10 miles    
Events      
T = Trace of Precipitation, MM = Missing Value Source: NWS Daily Summary

Daily Weather History Graph

Daily Weather History Graph

Search for Another Location

Airport:

Trip Planner

Search our weather history database for the weather conditions in past years. The results will help you decide how hot, cold, wet, or windy it might be!

Date:

Astronomy

May. 24, 2013 Rise Set
Actual Time 5:20 AM CDT 8:17 PM CDT
Civil Twilight 4:46 AM CDT 8:51 PM CDT
Nautical Twilight 4:03 AM CDT 9:33 PM CDT
Astronomical Twilight 3:13 AM CDT 10:24 PM CDT
Moon 7:58 PM CDT (5/24) 4:53 AM CDT (5/24)
Length of Visible Light 16h 04m
Length of Day
14h 57m
Full, 100% of the Moon is Illuminated
May 24
Full
May 24
Full
May 31
Last Quarter
Jun 8
New
Jun 16
First Quarter

Hourly Weather History & Observations

Time (CDT) Temp. Windchill Dew Point Humidity Pressure Visibility Wind Dir Wind Speed Gust Speed Precip Events Conditions
12:52 AM 42.1 °F 36.1 °F 33.1 °F 70% 30.34 in 10.0 mi NNE 10.4 mph 18.4 mph N/A   Clear
1:52 AM 43.0 °F 36.4 °F 32.0 °F 65% 30.34 in 10.0 mi NNE 12.7 mph 21.9 mph N/A   Clear
2:52 AM 42.1 °F 36.1 °F 32.0 °F 67% 30.35 in 10.0 mi NNE 10.4 mph - N/A   Clear
3:52 AM 42.1 °F 36.6 °F 32.0 °F 67% 30.36 in 10.0 mi North 9.2 mph - N/A   Clear
4:52 AM 39.0 °F 35.7 °F 32.0 °F 76% 30.38 in 10.0 mi NW 4.6 mph - N/A   Clear
5:52 AM 37.9 °F 34.4 °F 32.0 °F 79% 30.39 in 10.0 mi NNW 4.6 mph - N/A   Clear
6:52 AM 44.1 °F 39.5 °F 35.1 °F 71% 30.40 in 10.0 mi North 8.1 mph - N/A   Clear
7:52 AM 45.0 °F 39.3 °F 35.1 °F 68% 30.43 in 10.0 mi NNE 11.5 mph - N/A   Clear
8:52 AM 46.9 °F - 36.0 °F 66% 30.46 in 10.0 mi NNE 13.8 mph 17.3 mph N/A   Clear
9:52 AM 48.0 °F - 37.9 °F 68% 30.48 in 10.0 mi ENE 8.1 mph - N/A   Clear
10:52 AM 51.1 °F - 35.1 °F 54% 30.47 in 10.0 mi NNE 9.2 mph - N/A   Clear
11:52 AM 50.0 °F - 34.0 °F 54% 30.46 in 10.0 mi NNE 9.2 mph - N/A   Clear
12:52 PM 50.0 °F - 37.9 °F 63% 30.45 in 10.0 mi ENE 11.5 mph - N/A   Partly Cloudy
1:52 PM 48.9 °F - 36.0 °F 61% 30.45 in 10.0 mi NE 12.7 mph - N/A   Partly Cloudy
2:52 PM 48.9 °F - 36.0 °F 61% 30.43 in 10.0 mi NE 10.4 mph - N/A   Partly Cloudy
3:52 PM 48.9 °F - 35.1 °F 59% 30.42 in 10.0 mi ENE 9.2 mph - N/A   Partly Cloudy
4:52 PM 48.9 °F - 35.1 °F 59% 30.39 in 10.0 mi NE 10.4 mph - N/A   Partly Cloudy
5:52 PM 46.0 °F 41.9 °F 32.0 °F 58% 30.38 in 10.0 mi NE 8.1 mph - N/A   Mostly Cloudy
6:52 PM 46.0 °F 43.1 °F 33.1 °F 61% 30.37 in 10.0 mi Variable 5.8 mph - N/A   Scattered Clouds
7:52 PM 43.0 °F 41.3 °F 30.9 °F 62% 30.38 in 10.0 mi ENE 3.5 mph - N/A   Scattered Clouds
8:52 PM 44.1 °F - 32.0 °F 63% 30.39 in 10.0 mi Calm Calm - N/A   Scattered Clouds
9:52 PM 44.1 °F - 30.9 °F 60% 30.40 in 10.0 mi Calm Calm - N/A   Scattered Clouds
10:52 PM 43.0 °F - 33.1 °F 68% 30.40 in 10.0 mi Calm Calm - N/A   Scattered Clouds
11:52 PM 43.0 °F - 33.1 °F 68% 30.40 in 10.0 mi Calm Calm - N/A   Mostly Cloudy